Location: Kuffner-Sternwarte
(48.2130°N, 16.2960°E)
Time: 06:22:45
(UTC+02:00)

ACS3 Solar Sail - Pass Details

Date: 24 September 2024
Orbit: 963 x 1036 km, 97.4° (Epoch: 04 October)

Event Time Altitude Azimuth Distance (km) Brightness Sun altitude
Exits shadow 19:34:54 - 119° (ESE) 3,005 3.8 -8.7°
Reaches altitude 10° 19:35:26 10° 117° (ESE) 2,837 3.6 -8.8°
Maximum altitude 19:40:43 28° 61° (ENE) 1,832 2.8 -9.6°
Drops below altitude 10° 19:46:00 10° 5° (N) 2,835 4.3 -10.5°
Sets 19:48:50 0° 355° (N) 3,783 5.1 -11.0°
